Location: La Comballaz
(46.3780°N, 7.0817°E)
Time: 04:49:53
(UTC+00:00)

Envisat - Pass Details

Date: 09 December 2021
Orbit: 764 x 766 km, 98.2° (Epoch: 16 January)

Event Time Altitude Azimuth Distance (km) Brightness Sun altitude
Rises 17:03:13 0° 214° (SW) 3,222 7.2 -12.9°
Reaches altitude 10° 17:06:34 10° 238° (WSW) 2,302 6.8 -13.5°
Maximum altitude 17:09:21 15° 272° (W) 1,995 6.2 -13.9°
Drops below altitude 10° 17:12:10 10° 306° (NW) 2,311 6.0 -14.4°
Sets 17:15:34 0° 330° (NNW) 3,244 6.4 -14.9°
